Tracking 31027 objects as of 19-Jul-2025
HD Live streaming from Space Station
objects crossing your sky now

STARLINK-2147

Track STARLINK-2147 now!
10-day predictions
STARLINK-2147 is classified as:


NORAD ID: 47736
Int'l Code: 2021-017Q
Perigee: 553.6 km
Apogee: 555.2 km
Inclination: 53.1 °
Period: 95.6 minutes
Semi major axis: 6925 km
RCS: Unknown
Launch date: March 4, 2021
Source: United States (US)
Launch site: AIR FORCE EASTERN TEST RANGE (AFETR)
Your satellite tracking list
RESURS O1 DEB
Track 1 satellite(s)




NASA's NSSDC Master Catalog

Two Line Element Set (TLE):
1 47736U 21017Q   25199.37182139 -.00000252  00000-0  19806-5 0  9997
2 47736  53.0539 173.5134 0001172  77.2578 282.8542 15.06395247242602
Source of the keplerian elements: AFSPC